Location: *
(1.3500°S, 147.5000°W)
Time: 19:55:30
(UTC+00:00)

Meteor 1-24 Rocket - Pass Details

Date: 07 April 2020
Orbit: 790 x 927 km, 81.3° (Epoch: 28 May)

Event Time Altitude Azimuth Distance (km) Brightness Sun altitude
Rises 04:35:30 0° 357° (N) 3,272 6.9 -10.9°
Reaches altitude 10° 04:37:51 10° 358° (N) 2,343 6.1 -11.5°
Maximum altitude 04:43:07 80° 85° (E) 807 3.5 -12.8°
Drops below altitude 10° 04:48:28 10° 172° (S) 2,381 5.9 -14.1°
Sets 04:50:52 0° 173° (S) 3,328 6.7 -14.7°
